Back to catalog

STARLINK-35957

AliveCommunicationsVLEO
NORAD 66823·PAYLOAD·🇺🇸 United States

Launched Dec 2, 2025 from Vandenberg Space Force Base

Loading…

Next Passes (next 24 hours)

TLE

FreshSource: CelesTrak SupGP

Epoch: Sep 14, 2026, 15:10 UTC

1 66823C 25280C   26257.63243056 -.00003480  00000+0 -29166-3 0  2573
2 66823  70.0009 217.9488 0003506 263.1207 343.4814 14.98328895    12

Track STARLINK-35957 in real time with AllMySat

Download on the App Store